Barcelona, Spain

9:52 PM CEST on May 22, 2018 (GMT +0200)
El Prat

Weather History for LEBL - February, 2018

Change the Weather History Date:

Thursday, February 1, 2018

  Actual Average Record
Temperature  
Mean Temperature 47 °F -  
Max Temperature 52 °F 55 °F 70 °F (2013)
Min Temperature 42 °F 41 °F 32 °F (1999)
Degree Days  
Heating Degree Days 18    
Moisture  
Dew Point 41 °F    
Average Humidity 78    
Maximum Humidity 93    
Minimum Humidity 56    
Precipitation  
Precipitation 0.04 in 0.05 in - ()
Sea Level Pressure  
Sea Level Pressure 29.83 in    
Wind  
Wind Speed 6 mph ()    
Max Wind Speed 20 mph    
Max Gust Speed -    
Visibility 7.1 miles    
Events Rain    
Averages and records for this station are not official NWS values.
T = Trace of Precipitation, MM = Missing Value Source: Averaged Metar Reports

Daily Weather History Graph

Daily Weather History Graph

Search for Another Location

Airport or City:

Astronomy

Feb. 01, 2018 Rise Set
Actual Time 8:03 AM CET 6:07 PM CET
Civil Twilight 7:33 AM CET 6:37 PM CET
Nautical Twilight 7:00 AM CET 7:10 PM CET
Astronomical Twilight 6:28 AM CET 7:42 PM CET
Moon 7:26 PM CET (2/1) 8:39 AM CET (2/1)
Length of Visible Light 11h 03m
Length of Day
10h 04m
Full, 99% of the Moon is Illuminated
Feb 1
Full
Feb 7
Last Quarter
Feb 15
New
Feb 23
First Quarter
Mar 2
Full

Hourly Weather History & Observations

Time (CET) Temp. Windchill Dew Point Humidity Pressure Visibility Wind Dir Wind Speed Gust Speed Precip Events Conditions
12:00 AM 51 °F - 46 °F 76% 30.05 in 14 mi West 6.9 mph - -  
12:00 AM 50.0 °F - 44.6 °F 82% 30.04 in 6.2 mi West 5.8 mph - N/A   Partly Cloudy
12:30 AM 51.8 °F - 46.4 °F 82% 30.04 in 6.2 mi NNW 3.5 mph - N/A   Partly Cloudy
1:00 AM 51 °F - 46 °F 76% 30.03 in 12 mi West 6.9 mph - -   Scattered Clouds
1:00 AM 50.0 °F - 44.6 °F 82% 30.01 in 6.2 mi NNW 6.9 mph - N/A   Partly Cloudy
1:30 AM 46.4 °F 43.5 °F 42.8 °F 87% 30.01 in 6.2 mi WNW 5.8 mph - N/A   Partly Cloudy
2:00 AM 47 °F - 42 °F 79% 29.99 in 8 mi Calm Calm - -  
2:00 AM 46.4 °F 44.3 °F 42.8 °F 87% 29.98 in 6.2 mi NW 4.6 mph - N/A   Partly Cloudy
2:30 AM 44.6 °F 40.7 °F 41.0 °F 87% 29.98 in 6.2 mi NNW 6.9 mph - N/A   Partly Cloudy
3:00 AM 44.6 °F 41.4 °F 42.8 °F 93% 29.95 in 6.2 mi NW 5.8 mph - N/A   Partly Cloudy
3:30 AM 44.6 °F 42.2 °F 41.0 °F 87% 29.95 in 5.6 mi NW 4.6 mph - N/A   Partly Cloudy
4:00 AM 45 °F - 41 °F 82% 29.95 in 6 mi NNE 2.3 mph - -   Mist
4:00 AM 44.6 °F 42.2 °F 41.0 °F 87% 29.95 in 5.6 mi NW 4.6 mph - N/A   Partly Cloudy
4:30 AM 44.6 °F 43.1 °F 41.0 °F 87% 29.92 in 5.6 mi NNW 3.5 mph - N/A   Partly Cloudy
5:00 AM 44 °F - 40 °F 79% 29.93 in 6 mi North 3.5 mph - -  
5:00 AM 42.8 °F 40.1 °F 39.2 °F 87% 29.92 in 5.6 mi NW 4.6 mph - N/A   Partly Cloudy
5:30 AM 42.8 °F 38.6 °F 39.2 °F 87% 29.89 in 6.2 mi NW 6.9 mph - N/A   Partly Cloudy
6:00 AM 43 °F - 39 °F 80% 29.90 in 7 mi North 5.8 mph - -  
6:00 AM 42.8 °F 38.6 °F 39.2 °F 87% 29.89 in 6.2 mi NW 6.9 mph - N/A   Partly Cloudy
6:30 AM 42.8 °F 41.1 °F 37.4 °F 81% 29.89 in 6.2 mi NNW 3.5 mph - N/A   Partly Cloudy
7:00 AM 42.8 °F 38.6 °F 37.4 °F 81% 29.86 in 6.2 mi NW 6.9 mph - N/A   Partly Cloudy
7:30 AM 42.8 °F 38.0 °F 37.4 °F 81% 29.86 in 6.2 mi NNW 8.1 mph - N/A   Partly Cloudy
8:00 AM 42.8 °F - 37.4 °F 81% 29.86 in 5.6 mi North 1.2 mph - N/A   Partly Cloudy
8:30 AM 42.8 °F 41.1 °F 37.4 °F 81% 29.86 in 5.6 mi NNW 3.5 mph - N/A   Partly Cloudy
9:00 AM 42.8 °F 40.1 °F 37.4 °F 81% 29.83 in 6.2 mi NNW 4.6 mph - N/A   Partly Cloudy
9:30 AM 44.6 °F 41.4 °F 37.4 °F 76% 29.83 in 6.2 mi NNW 5.8 mph - N/A   Partly Cloudy
10:00 AM 46 °F - 38 °F 67% 29.84 in 7 mi North 10.4 mph - -   Scattered Clouds
10:00 AM 44.6 °F 40.2 °F 37.4 °F 76% 29.83 in 6.2 mi NW 8.1 mph - N/A   Partly Cloudy
10:30 AM 44.6 °F 40.2 °F 37.4 °F 76% 29.83 in 6.2 mi NW 8.1 mph - N/A   Partly Cloudy
11:00 AM 47 °F - 39 °F 64% 29.85 in 8 mi North 9.2 mph - -  
11:00 AM 46.4 °F 42.4 °F 39.2 °F 76% 29.83 in 5.6 mi NW 8.1 mph - N/A   Partly Cloudy
11:30 AM 48.2 °F - 39.2 °F 71% 29.83 in 5.6 mi NW 5.8 mph - N/A   Unknown
12:00 PM 48.2 °F - 39.2 °F 71% 29.80 in 5.6 mi NW 6.9 mph - N/A   Partly Cloudy
12:30 PM 50.0 °F - 39.2 °F 66% 29.80 in 5.6 mi NW 5.8 mph - N/A   Partly Cloudy
1:00 PM 51 °F - 41 °F 59% 29.80 in 6 mi North 8.1 mph - -   Mostly Cloudy
1:00 PM 50.0 °F - 41.0 °F 71% 29.80 in 5.6 mi NW 5.8 mph - N/A   Unknown
1:30 PM 51.8 °F - 41.0 °F 67% 29.77 in 5.6 mi NW 8.1 mph - N/A   Unknown
2:00 PM 52 °F - 41 °F 56% 29.77 in 7 mi North 6.9 mph - -  
2:00 PM 51.8 °F - 39.2 °F 62% 29.77 in 5.6 mi NW 6.9 mph - N/A   Partly Cloudy
2:30 PM 51.8 °F - 41.0 °F 67% 29.74 in 5.6 mi NW 6.9 mph - N/A   Partly Cloudy
3:00 PM 51.8 °F - 41.0 °F 67% 29.74 in 5.0 mi NNW 5.8 mph - N/A Rain Light Rain
3:30 PM 51.8 °F - 41.0 °F 67% 29.74 in 5.0 mi ENE 5.8 mph - N/A Rain Light Rain
4:00 PM 50.0 °F - 44.6 °F 82% 29.71 in 5.0 mi North 4.6 mph - N/A Rain Light Rain
4:30 PM 50.0 °F - 44.6 °F 82% 29.71 in 4.3 mi NNE 4.6 mph - N/A Rain Light Rain
4:51 PM 50.0 °F - 46.4 °F 87% 29.71 in 4.3 mi North 4.6 mph - N/A Rain Rain
5:00 PM 51 °F - 46 °F 78% 29.74 in 9 mi East 5.8 mph - - Rain Light Rain
5:00 PM 50.0 °F - 46.4 °F 87% 29.71 in 5.0 mi NNE 4.6 mph - N/A Rain Rain
5:30 PM 50.0 °F - 44.6 °F 82% 29.74 in 5.0 mi Variable 5.8 mph - N/A Rain Rain
6:00 PM 48 °F - 45 °F 85% 29.74 in 11 mi East 15.0 mph - - Rain Light Rain
6:00 PM 48.2 °F - 44.6 °F 87% 29.71 in 5.6 mi ENE 15.0 mph - N/A Rain Light Rain
6:30 PM 46.4 °F 39.8 °F 42.8 °F 87% 29.74 in 5.6 mi ENE 16.1 mph - N/A Rain Light Rain
7:00 PM 46 °F - 42 °F 80% 29.75 in 6 mi East 17.3 mph - - Rain Light Rain
7:00 PM 46.4 °F 39.8 °F 41.0 °F 81% 29.74 in 5.6 mi ENE 16.1 mph - N/A Rain Light Rain
7:30 PM 46.4 °F 39.8 °F 41.0 °F 81% 29.74 in 6.2 mi East 16.1 mph - N/A   Light Drizzle
8:00 PM 46 °F - 42 °F 79% 29.77 in 19 mi East 16.1 mph - -   Clear
8:00 PM 46.4 °F 40.4 °F 41.0 °F 81% 29.74 in 6.2 mi East 13.8 mph - N/A   Light Drizzle
8:30 PM 44.6 °F 37.2 °F 39.2 °F 81% 29.74 in 6.2 mi ENE 17.3 mph - N/A   Light Drizzle
9:00 PM 46 °F - 39 °F 67% 29.77 in 19 mi East 19.6 mph - -  
9:00 PM 46.4 °F 40.1 °F 39.2 °F 76% 29.74 in 6.2 mi ENE 15.0 mph - N/A   Light Drizzle
9:30 PM 46.4 °F 40.7 °F 39.2 °F 76% 29.77 in 6.2 mi ENE 12.7 mph - N/A   Overcast
10:00 PM 47 °F - 41 °F 73% 29.77 in 19 mi ENE 11.5 mph - -   Partly Cloudy
10:00 PM 46.4 °F 40.7 °F 41.0 °F 81% 29.74 in 6.2 mi ENE 12.7 mph - N/A   Mostly Cloudy
10:30 PM 46.4 °F 42.4 °F 39.2 °F 76% 29.74 in 6.2 mi NE 8.1 mph - N/A   Mostly Cloudy
11:00 PM 46 °F - 40 °F 74% 29.77 in 19 mi NNE 5.8 mph - -  
11:00 PM 46.4 °F 42.9 °F 41.0 °F 81% 29.74 in 6.2 mi NNE 6.9 mph - N/A   Mostly Cloudy
11:30 PM 44.6 °F 42.2 °F 41.0 °F 87% 29.77 in 6.2 mi North 4.6 mph - N/A Rain Light Rain Showers